Back to catalog

BREEZE-M DEB

LostHEO
NORAD 38567·DEBRIS·🇷🇺 Russia

Launched Mar 14, 2008 from Baikonur Cosmodrome

Loading…

Next Passes (next 24 hours)

TLE

StaleSource: Space-Track

Epoch: Oct 7, 2025, 11:09 UTC

1 38567U 08011N   25280.46512454 -.00000084  00000-0  00000-0 0  9990
2 38567  49.4007  28.5355 6174890 232.1424  58.9944  2.94784744156220

Track BREEZE-M DEB in real time with AllMySat

Download on the App Store